Change the Weather History Date:

Monday, November 5, 2012

  Actual Average (KEVV) Record (KEVV)
Temperature  
Mean Temperature 42 °F 51 °F  
Max Temperature 47 °F 62 °F 78 °F (1975)
Min Temperature 37 °F 40 °F 16 °F (1991)
Degree Days  
Heating Degree Days 23 14  
Month to date heating degree days 67  
Since 1 July heating degree days 370  
Cooling Degree Days 0 0  
Month to date cooling degree days 0  
Year to date cooling degree days 1395  
Moisture  
Dew Point 37 °F    
Average Humidity 83    
Maximum Humidity 93    
Minimum Humidity 58    
Precipitation  
Precipitation 0.01 in 0.14 in 1.72 in (1994)
Month to date precipitation 0.66  
Year to date precipitation 37.88  
Snow  
Snow 0.00 in 0.00 in 1.80 in (1951)
Month to date snowfall 0.0  
Since 1 July snowfall 0.2  
Since 1 September snowfall 0.2  
Snow Depth -    
Sea Level Pressure  
Sea Level Pressure 30.12 in    
Wind  
Wind Speed 3 mph (NE)    
Max Wind Speed 10 mph    
Max Gust Speed -    
Visibility 10 miles    
Events Rain    
T = Trace of Precipitation, MM = Missing Value Source: NWS Daily Summary

Daily Weather History Graph

Daily Weather History Graph

Search for Another Location

Airport or City:

Trip Planner

Search our weather history database for the weather conditions in past years. The results will help you decide how hot, cold, wet, or windy it might be!

Date:

Astronomy

Nov. 05, 2012 Rise Set
Actual Time 6:23 AM CST 4:48 PM CST
Civil Twilight 5:55 AM CST 5:16 PM CST
Nautical Twilight 5:24 AM CST 5:47 PM CST
Astronomical Twilight 4:53 AM CST 6:18 PM CST
Moon 10:25 PM CST (11/5) 11:42 AM CST (11/5)
Length of Visible Light 11h 20m
Length of Day
10h 25m
Waning Gibbous, 62% of the Moon is Illuminated
Nov 5
Waning Gibbous
Nov 6
Last Quarter
Nov 13
New
Nov 20
First Quarter
Nov 28
Full

Hourly Weather History & Observations

Time (CST) Temp. Windchill Dew Point Humidity Pressure Visibility Wind Dir Wind Speed Gust Speed Precip Events Conditions
12:15 AM 40.3 °F - 36.5 °F 86% 30.17 in 10.0 mi Calm Calm - N/A   Mostly Cloudy
12:35 AM 40.1 °F - 36.9 °F 88% 30.17 in 10.0 mi Calm Calm - N/A   Overcast
12:55 AM 40.1 °F - 36.5 °F 87% 30.17 in 10.0 mi Calm Calm - N/A   Mostly Cloudy
1:15 AM 40.3 °F - 37.4 °F 89% 30.17 in 10.0 mi Calm Calm - N/A   Scattered Clouds
1:35 AM 40.3 °F - 37.2 °F 89% 30.17 in 10.0 mi Calm Calm - N/A   Mostly Cloudy
1:55 AM 39.6 °F - 36.7 °F 89% 30.17 in 10.0 mi Calm Calm - N/A   Scattered Clouds
2:15 AM 39.4 °F - 37.0 °F 91% 30.17 in 10.0 mi Calm Calm - N/A   Clear
2:35 AM 39.4 °F - 37.4 °F 93% 30.16 in 10.0 mi Calm Calm - N/A   Clear
2:55 AM 39.6 °F - 37.4 °F 92% 30.16 in 10.0 mi Calm Calm - N/A   Clear
3:15 AM 39.6 °F - 37.4 °F 92% 30.16 in 10.0 mi Calm Calm - N/A   Clear
3:35 AM 38.5 °F - 36.0 °F 91% 30.16 in 10.0 mi Calm Calm - N/A   Clear
3:55 AM 37.6 °F 34.0 °F 35.6 °F 93% 30.15 in 10.0 mi NE 4.6 mph - N/A   Clear
4:15 AM 38.3 °F 35.9 °F 36.5 °F 93% 30.15 in 10.0 mi ENE 3.5 mph - N/A   Clear
4:35 AM 38.1 °F - 36.0 °F 92% 30.15 in 10.0 mi Calm Calm - N/A   Mostly Cloudy
4:55 AM 38.8 °F - 36.7 °F 92% 30.15 in 10.0 mi Calm Calm - N/A   Mostly Cloudy
5:15 AM 38.8 °F 36.5 °F 36.5 °F 91% 30.15 in 10.0 mi East 3.5 mph - N/A   Mostly Cloudy
5:35 AM 38.8 °F 36.5 °F 35.8 °F 89% 30.15 in 10.0 mi East 3.5 mph - N/A   Mostly Cloudy
5:55 AM 37.9 °F 34.4 °F 36.0 °F 93% 30.15 in 10.0 mi East 4.6 mph - N/A   Scattered Clouds
6:15 AM 38.3 °F - 36.5 °F 93% 30.15 in 7.0 mi Calm Calm - N/A   Scattered Clouds
6:35 AM 39.2 °F - 37.0 °F 92% 30.15 in 10.0 mi Calm Calm - N/A   Light Drizzle
6:55 AM 40.1 °F 38.0 °F 37.2 °F 89% 30.15 in 10.0 mi East 3.5 mph - N/A   Clear
7:15 AM 40.5 °F 37.3 °F 36.5 °F 86% 30.15 in 10.0 mi ESE 4.6 mph - N/A   Light Drizzle
7:35 AM 41.2 °F 38.2 °F 37.0 °F 85% 30.16 in 10.0 mi ESE 4.6 mph - N/A   Clear
7:55 AM 41.4 °F 36.8 °F 36.7 °F 83% 30.15 in 10.0 mi SE 6.9 mph - N/A Rain Light Rain
8:15 AM 41.4 °F 37.6 °F 36.7 °F 83% 30.15 in 10.0 mi ESE 5.8 mph - N/A   Scattered Clouds
8:35 AM 42.1 °F 37.7 °F 37.0 °F 82% 30.15 in 10.0 mi ESE 6.9 mph - N/A   Scattered Clouds
8:55 AM 42.6 °F 38.4 °F 36.9 °F 80% 30.15 in 10.0 mi ESE 6.9 mph - N/A   Scattered Clouds
9:15 AM 43.3 °F 38.1 °F 35.8 °F 75% 30.14 in 10.0 mi ESE 9.2 mph - N/A   Scattered Clouds
9:35 AM 43.9 °F 38.8 °F 35.2 °F 72% 30.14 in 10.0 mi ESE 9.2 mph - N/A   Clear
9:55 AM 44.2 °F 38.8 °F 35.2 °F 71% 30.14 in 10.0 mi East 10.4 mph - N/A   Clear
10:15 AM 43.9 °F 38.8 °F 34.7 °F 70% 30.14 in 10.0 mi ESE 9.2 mph - N/A   Scattered Clouds
10:35 AM 44.8 °F 39.4 °F 34.9 °F 68% 30.14 in 10.0 mi ESE 10.4 mph - N/A   Scattered Clouds
10:55 AM 45.9 °F 42.3 °F 34.3 °F 64% 30.13 in 10.0 mi ESE 6.9 mph - N/A   Mostly Cloudy
11:15 AM 46.8 °F - 33.3 °F 59% 30.13 in 10.0 mi ESE 9.2 mph - N/A   Scattered Clouds
11:35 AM 47.5 °F - 33.4 °F 58% 30.13 in 10.0 mi East 8.1 mph - N/A   Scattered Clouds
11:55 AM 47.3 °F - 33.4 °F 59% 30.12 in 10.0 mi East 4.6 mph - N/A   Clear
12:15 PM 47.5 °F - 33.6 °F 59% 30.11 in 10.0 mi SE 5.8 mph - N/A   Clear
12:35 PM 46.9 °F - 33.8 °F 60% 30.11 in 10.0 mi Calm Calm - N/A   Mostly Cloudy
12:55 PM 47.1 °F - 34.0 °F 60% 30.10 in 10.0 mi Calm Calm - N/A   Light Drizzle
1:15 PM 46.0 °F 43.1 °F 35.4 °F 66% 30.10 in 10.0 mi NNE 5.8 mph - N/A   Light Drizzle
1:35 PM 45.5 °F 41.8 °F 35.6 °F 68% 30.09 in 10.0 mi NNE 6.9 mph - N/A   Light Drizzle
1:55 PM 45.5 °F 42.5 °F 36.0 °F 69% 30.09 in 10.0 mi NE 5.8 mph - N/A   Mostly Cloudy
2:15 PM 45.0 °F 41.8 °F 36.0 °F 71% 30.09 in 10.0 mi NE 5.8 mph - N/A Rain Light Rain
2:35 PM 44.6 °F 42.2 °F 36.1 °F 72% 30.10 in 10.0 mi NE 4.6 mph - N/A Rain Light Rain
2:55 PM 44.1 °F 42.5 °F 36.9 °F 76% 30.10 in 10.0 mi NNE 3.5 mph - N/A Rain Light Rain
3:15 PM 44.1 °F 42.5 °F 37.6 °F 78% 30.10 in 10.0 mi North 3.5 mph - N/A   Light Drizzle
3:35 PM 43.9 °F 42.3 °F 37.4 °F 78% 30.10 in 10.0 mi North 3.5 mph - N/A   Light Drizzle
3:55 PM 43.7 °F 42.1 °F 37.6 °F 79% 30.10 in 10.0 mi North 3.5 mph - N/A   Light Drizzle
4:15 PM 43.7 °F 42.1 °F 38.8 °F 83% 30.10 in 10.0 mi North 3.5 mph - N/A   Light Drizzle
4:35 PM 43.3 °F 41.7 °F 39.4 °F 86% 30.10 in 10.0 mi NNE 3.5 mph - N/A Rain Light Rain
4:55 PM 43.0 °F 41.3 °F 38.5 °F 84% 30.10 in 10.0 mi NNE 3.5 mph - N/A   Overcast
5:15 PM 42.8 °F - 38.8 °F 86% 30.11 in 10.0 mi Calm Calm - N/A   Overcast
5:35 PM 42.8 °F 41.1 °F 39.2 °F 87% 30.10 in 10.0 mi NNE 3.5 mph - N/A   Mostly Cloudy
5:55 PM 42.8 °F 41.1 °F 39.2 °F 87% 30.11 in 10.0 mi NE 3.5 mph - N/A   Overcast
6:15 PM 42.6 °F 40.9 °F 39.4 °F 88% 30.11 in 10.0 mi NNE 3.5 mph - N/A   Overcast
6:35 PM 42.8 °F 39.3 °F 38.7 °F 85% 30.11 in 10.0 mi NNE 5.8 mph - N/A   Overcast
6:55 PM 42.8 °F 38.0 °F 38.5 °F 85% 30.10 in 10.0 mi NNE 8.1 mph - N/A   Overcast
7:15 PM 42.4 °F 38.1 °F 38.3 °F 85% 30.10 in 10.0 mi NNE 6.9 mph - N/A   Overcast
7:35 PM 42.3 °F 37.9 °F 38.5 °F 86% 30.10 in 10.0 mi NNE 6.9 mph - N/A   Light Drizzle
7:55 PM 42.1 °F 40.2 °F 38.5 °F 87% 30.10 in 7.0 mi NNE 3.5 mph - 0.01 in Rain Rain
8:15 PM 41.9 °F 38.2 °F 38.8 °F 89% 30.11 in 7.0 mi North 5.8 mph - N/A Rain Light Rain
8:35 PM 41.9 °F 39.0 °F 39.4 °F 91% 30.10 in 7.0 mi North 4.6 mph - N/A   Light Drizzle
8:55 PM 42.1 °F 39.2 °F 39.4 °F 90% 30.10 in 7.0 mi North 4.6 mph - N/A   Light Drizzle
9:15 PM 42.1 °F 39.2 °F 39.6 °F 91% 30.10 in 7.0 mi North 4.6 mph - N/A   Light Drizzle
9:35 PM 42.3 °F 38.6 °F 38.8 °F 88% 30.10 in 10.0 mi North 5.8 mph - N/A   Mostly Cloudy
9:55 PM 42.1 °F 38.4 °F 39.0 °F 89% 30.10 in 10.0 mi North 5.8 mph - N/A Rain Light Rain
10:15 PM 42.1 °F 40.2 °F 39.2 °F 90% 30.08 in 7.0 mi North 3.5 mph - N/A   Light Drizzle
10:35 PM 42.1 °F 39.2 °F 39.0 °F 89% 30.08 in 7.0 mi North 4.6 mph - N/A   Mostly Cloudy
10:55 PM 42.1 °F - 39.0 °F 89% 30.08 in 7.0 mi Calm Calm - N/A   Light Drizzle
11:15 PM 42.1 °F 40.2 °F 39.2 °F 90% 30.07 in 7.0 mi North 3.5 mph - N/A   Overcast
11:35 PM 41.9 °F - 39.2 °F 90% 30.07 in 7.0 mi Calm Calm - N/A   Overcast
11:55 PM 41.5 °F 39.6 °F 39.2 °F 91% 30.06 in 7.0 mi North 3.5 mph - N/A   Overcast